Location: Andrest
(43.3200°N, 0.0641°E)
Time: 14:56:27
(UTC+00:00)

X-37B - Visible Passes

Search period start: 20 April 2021 00:00
Search period end: 30 April 2021 00:00
Orbit: 380 x 394 km, 45.0° (Epoch: 07 April)

Date Brightness Start Highest point End Pass type
(mag) Time Alt. Az. Time Alt. Az. Time Alt. Az.
20 Apr 1.6 02:56:51 45° E 02:56:51 45° E 02:59:11 10° ENE visible
20 Apr 1.0 04:29:34 10° W 04:32:45 60° N 04:35:53 10° E visible
21 Apr 0.8 03:33:10 35° WNW 03:34:18 65° N 03:37:29 10° ENE visible
22 Apr 2.3 02:37:13 32° ENE 02:37:13 32° ENE 02:39:05 10° ENE visible
22 Apr 0.9 04:09:30 10° WNW 04:12:41 64° N 04:15:51 10° E visible
23 Apr 1.0 03:13:35 46° NW 03:14:15 60° N 03:17:25 10° E visible
24 Apr 3.0 02:17:43 22° ENE 02:17:43 22° ENE 02:19:00 10° ENE visible
24 Apr 0.7 03:50:01 15° WNW 03:52:37 78° NNE 03:55:48 10° E visible
25 Apr 0.9 02:54:14 64° N 02:54:14 64° N 02:57:23 10° E visible
25 Apr 0.9 04:27:43 10° W 04:30:50 50° SSW 04:33:55 10° SE visible
26 Apr 3.7 01:58:35 13° E 01:58:35 13° E 01:58:56 10° E visible
26 Apr 0.5 03:30:53 26° W 03:32:30 77° SSW 03:35:41 10° ESE visible
27 Apr 2.1 02:35:27 32° E 02:35:27 32° E 02:37:19 10° E visible
27 Apr 1.5 04:07:45 10° W 04:10:36 30° SSW 04:13:27 10° SE visible
28 Apr 0.9 03:12:36 48° S 03:12:36 48° S 03:15:26 10° SE visible
29 Apr 2.1 03:50:11 18° SW 03:50:18 18° SW 03:52:35 10° S visible
